This demonstration page uses our WeatherBlox Daily Observations layout. Learn more.

Left ArrowRight Arrow

40.92945, -100.16068

Hourly Observations for May 7, 2020

Temp ( °F °C ) Dew Point ( °F °C ) Humidity (%) Winds ( mph kmh ) Pressure ( in mb ) Visibility ( mi km ) Precip ( " mm )
12:15 am 00:15 Clear 49 9.3 39 4.1 70 70 SE 8 13 30.2 1023 10 16.0934 0 0
12:35 am 00:35 Clear 49 9.2 39 4 70 70 SE 9 15 30.2 1023 10 16.0934 0 0
12:55 am 00:55 Clear 49 9.5 39 4 69 69 SE 8 13 30.2 1023 10 16.0934 0 0
1:15 am 01:15 Clear 49 9.3 39 4.1 70 70 SE 8 13 30.19 1022 10 16.0934 0 0
1:35 am 01:35 Clear 49 9.5 39 3.7 67 67 SE 13 20 30.17 1022 10 16.0934 0 0
1:55 am 01:55 Clear 49 9.4 38 3.6 67 67 SE 10 17 30.16 1021 10 16.0934 0 0
2:15 am 02:15 Partly Cloudy 49 9.5 39 3.7 67 67 SE 12 19 30.14 1021 10 16.0934 0 0
2:35 am 02:35 Clear 49 9.5 38 3.5 66 66 SE 9 15 30.16 1021 10 16.0934 0 0
2:55 am 02:55 Mostly Cloudy 49 9.5 38 3.6 67 67 SE 9 15 30.15 1021 10 16.0934 0 0
3:15 am 03:15 Cloudy 49 9.5 38 3.4 66 66 SE 10 17 30.14 1021 10 16.0934 0 0
3:35 am 03:35 Mostly Cloudy 49 9.4 38 3.5 67 67 SE 13 20 30.13 1020 10 16.0934 0 0
3:55 am 03:55 Mostly Cloudy 49 9.2 38 3.4 67 67 SSE 12 19 30.13 1020 10 16.0934 0 0
4:15 am 04:15 Partly Cloudy 49 9.5 38 3.3 66 66 S 15 24 30.12 1020 10 16.0934 0 0
4:35 am 04:35 Clear 49 9.5 38 3.2 65 65 SE 13 20 30.11 1019 10 16.0934 0 0
4:55 am 04:55 Partly Cloudy 49 9.7 37 2.9 63 63 SE 14 22 30.11 1020 10 16.0934 0 0
5:15 am 05:15 Mostly Cloudy 49 9.4 37 3 65 65 SSE 14 22 30.1 1019 10 16.0934 0 0
5:35 am 05:35 Partly Cloudy 48 9 37 3 66 66 SSE 14 22 30.07 1018 10 16.0934 0 0
5:55 am 05:55 Mostly Cloudy 48 8.8 38 3.6 70 70 SSE 12 19 30.07 1018 10 16.0934 0 0
6:15 am 06:15 Cloudy with Nearby Thunderstorms 49 9.2 38 3.1 66 66 SE 13 20 30.07 1018 10 16.0934 0 0
6:35 am 06:35 Cloudy with Light Rain 48 8.8 39 4 72 72 SE 10 17 30.09 1019 10 16.0934 0 0
6:55 am 06:55 Mostly Cloudy 47 8.6 39 4.1 74 74 SE 16 26 30.05 1018 10 16.0934 0 0
7:15 am 07:15 Partly Cloudy 47 8.2 40 4.5 78 78 SE 16 26 30.06 1018 10 16.0934 0 0
7:35 am 07:35 Mostly Cloudy 48 9.1 41 4.9 75 75 SSE 17 28 30.05 1018 10 16.0934 0 0
7:55 am 07:55 Mostly Cloudy 48 8.8 41 4.9 77 77 SE 12 19 30.05 1018 10 16.0934 0 0
8:15 am 08:15 Mostly Cloudy 49 9.2 41 5 75 75 SSE 13 20 30.05 1018 10 16.0934 0 0
8:35 am 08:35 Mostly Cloudy 49 9.5 41 5.1 74 74 SSE 14 22 30.05 1017 10 16.0934 0 0
8:55 am 08:55 Partly Cloudy 51 10.5 42 5.7 72 72 SE 14 22 30.02 1016 10 16.0934 0 0
9:15 am 09:15 Partly Cloudy 52 11.1 43 6.1 72 72 SE 15 24 30.02 1017 10 16.0934 0 0
9:35 am 09:35 Mostly Cloudy 53 11.5 43 6.3 71 71 SSE 14 22 30.02 1017 10 16.0934 0 0
9:55 am 09:55 Cloudy 55 12.6 45 7 69 69 SSE 13 20 30.01 1016 10 16.0934 0 0
10:15 am 10:15 Cloudy 55 12.9 44 6.7 66 66 SSE 14 22 29.99 1016 10 16.0934 0 0
10:35 am 10:35 Cloudy 57 13.7 45 7.4 66 66 S 16 26 29.97 1015 10 16.0934 0 0
10:55 am 10:55 Mostly Cloudy 58 14.2 46 7.5 64 64 S 15 24 29.95 1014 10 16.0934 0 0
11:15 am 11:15 Cloudy 58 14.5 46 7.9 65 65 S 15 24 29.95 1014 10 16.0934 0 0
11:35 am 11:35 Cloudy 58 14.3 46 7.5 64 64 S 13 20 29.94 1014 10 16.0934 0 0
11:55 am 11:55 Cloudy 60 15.4 46 7.7 60 60 S 13 20 29.92 1013 10 16.0934 0 0
12:15 pm 12:15 Cloudy 60 15.6 46 7.9 60 60 SSE 13 20 29.91 1013 10 16.0934 0 0
12:35 pm 12:35 Cloudy 60 15.6 46 7.7 60 60 S 16 26 29.89 1012 10 16.0934 0 0
12:55 pm 12:55 Cloudy 63 17.3 47 8.3 56 56 S 17 28 29.87 1011 10 16.0934 0 0
1:15 pm 13:15 Cloudy 64 17.8 47 8.6 55 55 S 15 24 29.84 1011 10 16.0934 0 0
1:35 pm 13:35 Cloudy 64 17.9 48 8.8 55 55 SW 16 26 29.83 1010 10 16.0934 0 0
1:55 pm 13:55 Mostly Cloudy 65 18.5 48 9 54 54 S 12 19 29.82 1010 10 16.0934 0 0
2:15 pm 14:15 Mostly Cloudy 65 18.5 48 8.9 54 54 WSW 8 13 29.81 1009 10 16.0934 0 0
2:35 pm 14:35 Mostly Cloudy 68 19.9 49 9.4 51 51 S 7 11 29.78 1009 10 16.0934 0 0
2:55 pm 14:55 Mostly Cloudy 67 19.3 48 8.7 50 50 W 3 6 29.78 1008 10 16.0934 0 0
3:15 pm 15:15 Mostly Cloudy 69 20.6 49 9.3 48 48 SSW 5 7 29.76 1008 10 16.0934 0 0
3:35 pm 15:35 Mostly Cloudy 68 20.2 50 10 52 52 E 5 7 29.75 1007 10 16.0934 0 0
3:55 pm 15:55 Mostly Cloudy 69 20.8 49 9.2 48 48 ESE 5 7 29.74 1007 10 16.0934 0 0
4:15 pm 16:15 Mostly Cloudy 69 20.6 50 10 51 51 SE 6 9 29.74 1007 10 16.0934 0 0
4:35 pm 16:35 Mostly Cloudy 68 19.9 50 9.9 53 53 ENE 12 19 29.74 1007 10 16.0934 0 0
4:55 pm 16:55 Mostly Cloudy 66 18.9 50 10.1 57 57 ESE 13 20 29.75 1008 10 16.0934 0 0
5:15 pm 17:15 Cloudy 65 18.6 50 9.8 57 57 ESE 14 22 29.75 1008 10 16.0934 0 0
5:35 pm 17:35 Cloudy 65 18.1 49 9.5 57 57 E 8 13 29.77 1008 10 16.0934 0 0
5:55 pm 17:55 Cloudy 63 17.2 50 10.1 63 63 SE 8 13 29.79 1009 10 16.0934 0 0
6:15 pm 18:15 Cloudy 63 17.3 51 10.5 65 65 E 7 11 29.82 1010 10 16.0934 0 0
6:35 pm 18:35 Mostly Cloudy 63 17.1 51 10.7 66 66 E 12 19 29.83 1010 10 16.0934 0 0
6:55 pm 18:55 Mostly Cloudy 62 16.8 51 10.6 67 67 ESE 12 19 29.83 1010 10 16.0934 0 0
7:15 pm 19:15 Mostly Cloudy 61 16 51 10.6 71 71 ESE 8 13 29.85 1011 10 16.0934 0 0
7:35 pm 19:35 Cloudy 60 15.4 51 10.5 73 73 N 7 11 29.88 1012 10 16.0934 0 0
7:55 pm 19:55 Mostly Cloudy with Nearby Thunderstorms 60 15.5 43 6 53 53 N 20 31 29.9 1013 10 16.0934 0 0
8:15 pm 20:15 Partly Cloudy 59 14.8 43 5.9 55 55 N 28 44 29.93 1013 10 16.0934 0 0
8:35 pm 20:35 Sunny 56 13.3 41 5.1 58 58 N 21 33 29.96 1015 10 16.0934 0 0
8:55 pm 20:55 Clear 54 12 40 4.4 60 60 N 20 31 29.98 1015 10 16.0934 0 0
9:15 pm 21:15 Clear 52 11.3 40 4.4 63 63 N 15 24 30.01 1016 10 16.0934 0 0
9:35 pm 21:35 Clear 50 10 40 4.6 69 69 N 23 37 30.04 1017 10 16.0934 0 0
9:55 pm 21:55 Clear 49 9.3 40 4.6 73 73 N 18 30 30.05 1018 10 16.0934 0 0
10:15 pm 22:15 Clear 47 8.5 41 4.8 78 78 NNW 15 24 30.08 1018 10 16.0934 0 0
10:35 pm 22:35 Clear 47 8.4 40 4.6 77 77 NNW 12 19 30.08 1018 10 16.0934 0 0
10:55 pm 22:55 Clear 46 8 40 4.7 80 80 N 17 28 30.1 1019 10 16.0934 0 0
11:15 pm 23:15 Partly Cloudy 46 7.8 40 4.6 80 80 NNW 18 30 30.11 1020 10 16.0934 0 0
11:35 pm 23:35 Mostly Cloudy 46 8 40 4.6 79 79 N 24 39 30.13 1020 10 16.0934 0 0
11:55 pm 23:55 Cloudy 45 7.4 40 4.6 83 83 N 31 50 30.16 1021 10 16.0934 0 0

Powered by AerisWeather